Погода в Котласе

Поиск расширенной информации на нашем сайте:

Полезная информация:

Новости сайта



02.01.2020
Опубликован Долгосрочный прогноз погоды по городам России и ближнего зарубежья на январь 2020 года.
Карты: Прогноз на январь и февраль 2020 года, Сравнение прогнозируемой аномалии приземной температуры воздуха на январь 2020 года по разным моделям.




Погода в Котласе - сегодня

Время (UTC), дата Ветер
(°,м/с) 
Видим.   Явления Облачность Т
(°С)
Тd
(°С)
f(%) Тe
(°С)
Pmin
(гПа)
dP
(гПа)
Po
(мм)
O2
(г/м3)
Тmin Tmax R s Состояние
почвы
18 24.01.20 140 (ЮВ) 4000 м  слаб. ливневой снег  10/6 900 м кучево-дожд., средняя 
[Cb cap|Ac und]
-7.6 -8.5 93 -10  988.7  -2.5  736  306           
21 24.01.20 150 (ЮВ) 4000 м  слаб. ливневой снег  10/6 450 м кучево-дожд., средняя 
[Cb cap|Ac und]
-7.4 -8.7 90 -10  986.6  -2.1  735  305           
00 25.01.20 140 (ЮВ) 4000 м  слаб. снег{ливн. осадки}  10/6 300 м средняя 
[Frnb|As op]
-7.4 -8.3 93 -10  985.4  -1.2  734  305           
03 25.01.20 тихо ()   4000 м  слаб. снег  10/6 330 м средняя 
[Frnb|As op]
-8.7 -9.4 95 -9  984.3  -1.2  733  306  -9.5    39  равномерный
сухой снег
100% 
06 25.01.20 150 (ЮВ) 4000 м  слаб. ливневой снег  10/6 300 м кучево-дожд., средняя, верхняя 
[Cb cap|Ac trans|Ci fib]
-9.4 -9.7 98 -9  983.8  -0.5  733  307           
09 25.01.20 нст () 2000 м  ливневой снег  10/8 300 м кучево-дожд., средняя 
[Cb cap|Ac und]
-7.9 -8.9 93 -8  983.9  0.1  733  305           
12 25.01.20 тихо ()   4000 м  слаб. ливневой снег  10/6 420 м кучево-дожд., средняя 
[Cb cap|Ac und]
-7.4 -8.7 90 -7  984.1  0.3  733  304           
15 25.01.20 140 (ЮВ) 4000 м  слаб. ливневой снег  10/8 400 м кучево-дожд., средняя 
[Cb cap|Ac und]
-7.7 -8.3 95 -7  984.7  0.6  733  305    -6.8  0.9     
18 25.01.20 180 (Ю) 4000 м  слаб. ливневой снег  10/4 600 м кучево-дожд., средняя 
[Cb cap|Ac und]
-7.4 -8 95 -7  985.4  0.7  734  305           
21 25.01.20 тихо ()   4000 м  слаб. ливневой снег  10/8 420 м кучево-дожд., средняя 
[Cb cap|Ac und]
-7.4 -8 95 -7  987.2  1.8  735  305           
00 26.01.20 350 (С) 4000 м  слаб. ливневой снег  10/8 400 м кучево-дожд., средняя 
[Cb cap|Ac und]
-8.6 -9.3 95 -8  989.6  2.2  737  307           
03 26.01.20 320 (СЗ) 4000 м  слаб. ливневой снег  10/8 300 м кучево-дожд., средняя 
[Cb cap|Ac und]
-9.8 -11 91 -13  993.3  3.7  740  310  -9.8    43  равномерный
сухой снег
100% 
06 26.01.20 320 (СЗ) 4000 м  слаб. ливневой снег  10/8 360 м кучево-дожд., средняя 
[Cb cap|Ac und]
-12.5 -14.5 85 -18  996.1  2.8  742  314  -12.5         
09 26.01.20 300 (СЗ) 4000 м  слаб. ливневой снег  10/8 330 м кучево-дожд., средняя 
[Cb cap|Ac und]
-12.7 -14.7 85 -18  998.8  2.5  744  315           
12 26.01.20 310 (СЗ) 20000 м  {ливн. осадки}  10/6 330 м средняя 
[St|Ac und]
-12.2 -14.2 85 -16  1000.5  1.8  745  315           
15 26.01.20 270 (З) 10 км  {ливн. осадки}  4/0 средняя, верхняя 
[Ac trans|Ci fib]
-15.9 -17.2 90 -16  1001.4  0.8  746  320    -9.8  0.2     
18 26.01.20 180 (Ю) 10 км  {ливн. осадки}  3/0 верхняя 
[Ci fib]
-21.9 -23.1 90 -25  1000.5  -1  745  328           
21 26.01.20 170 (Ю) 10 км    10/8 420 м средняя 
[Sc|Ac und]
-17.4 -18.6 90 -21  998.7  -1.7  743  321           
00 27.01.20 140 (ЮВ) 2000 м  ливневой снег  10/10 210 м кучево-дожд. 
[Cb cap]
-14.9 -16.2 90 -15  998  -0.7  743  318           
03 27.01.20 320 (СЗ) 10 км  {ливн. осадки}  6/0 верхняя 
[Ci fib]
-15.9 -17.2 90 -20  999.5  1.5  744  320  -23.4    40  равномерный
сухой снег
100% 
06 27.01.20 330 (СЗ) 4000 м  слаб. ливневой снег  10/6 420 м кучево-дожд., средняя, верхняя 
[Cb cap|Ac trans|Ci fib]
-17.5 -20.1 80 -23  1002.7  3.2  746  323           
09 27.01.20 340 (С) 20000 м  в посл. час ливневой снег  6/3 300 м средняя, верхняя 
[Sc|Ac trans|Ci fib]
-18 -19.9 85 -23  1006.8  749  325           
12 27.01.20 320 (СЗ) 20000 м  {ливн. осадки}  4/0 верхняя 
[Ci fib]
-18.2 -20.8 80 -23  1010.2  3.3  752  326           
15 27.01.20 320 (СЗ) 10 км    4/0 верхняя 
[Ci fib]
-20.2 -22.1 85 -25  1013.7  3.5  755  330    -15.9  0.2     
18 27.01.20 320 (СЗ) 10 км    4/0 верхняя 
[Ci fib]
-21.6 -23.4 85 -27  1016  2.3  756  333           
Время (UTC), дата Ветер
(°,м/с) 
Видим.   Явления Облачность Т
(°С)
Тd
(°С)
f(%) Тe
(°С)
Pmin
(гПа)
dP
(гПа)
Po
(мм)
O2
(г/м3)
Тmin Tmax R s Состояние
почвы

Для получения пояснительной информации подведите курсор к названию столбца.

ПОГОДА в Котласе - архив

Всё, что Вы хотите узнать о погоде в Котласе - удобно и подробно!

Выберите нужную дату (начиная с 1 января 2019* года) и нажмите кнопку "Найти".
Будут отображены архивные сводки погоды по пункту Котлас, начиная с указанной даты.


Отображать данные в формате CSV (для использования в таблицах Excel)


Внимание! Наш архив погоды предназначен исключительно для личного некоммерческого использования в познавательных целях. Если Вам необходимы официальные справки о состоянии погоды (для производственных, юридических, коммерческих и т.п. целей), обращайтесь в органы Росгидромета.

*Примечание: данная дата относится к архиву по метеостанциям СССР (Россия, СНГ, Балтия).
Архив по метеостанциям Зарубежной Европы и Азии (кроме Китая) хранится 10 дней, по другим регионам земного шара (Китай, Африка, Америка, Австралия, Океания) - 1 день.

Котлас - район местоположения метеостанции


Название, широта, долгота, высота метеостанции:
Котлас 61.2°ш. 46.7°д. 56 м над ур. моря [Российская Федерация]

Дополнительная информация

В oтличие oт бoльшинства пoгoдных сайтoв мы публикуем пoдрoбную метеoинфoрмацию в детальнoм прoфессиoнальнoм фoрмате.

Характеристики температуры и влажнoсти вoздуха измеряются на высoте 2 м в тени вдали oт зданий и деревьев.
Скoрoсть ветра измеряется на высoте 10 м (на урoвне рoста челoвека скoрoсть ветра ниже в 1.5-2 раза). Если метеoстанция нахoдится в гoрoде или в лесу, тo скoрoсть ветра занижена на 2-4 м/с пo сравнению с oткрытым местoм. Скoрoсть ветра над акватoриями крупных рек и oзёр, а также на вершинах хoлмoв на 2-5 м/с выше, чем в oбычных услoвиях.
Атмoсфернoе давление в разных тoчках местнoсти мoжет значительнo oтличаться oт давления на метеoстанции, в зависимoсти oт услoвий рельефа (при пoдъёме на 10 м давление пoнижается примернo на 1 мм рт.ст.).